FW6934 Weather Reports


Display with metric or nautical units.
time (UTC)temp
F
wind
direction
speed
MPH
gust
MPH
rain 1hr
in
rain 24hr
in
rain mn
in
humidity
%
barometer
mb
20260505083008 53 175 0.0 0.0 0.00 0.00 0.00 85 1001.5
20260505082554 53 175 0.0 0.0 0.00 0.00 0.00 85 1001.6
20260505082041 53 175 0.0 0.0 0.00 0.00 0.00 84 1001.5
20260505081510 54 175 0.0 0.0 0.00 0.00 0.00 85 1001.4
20260505081101 54 175 0.0 0.0 0.00 0.00 0.00 84 1001.4
20260505080549 54 175 0.0 0.0 0.00 0.00 0.00 84 1001.2
20260505080005 54 175 0.0 0.0 0.00 0.00 0.00 84 1001.1
20260505075552 54 175 0.0 0.0 0.00 0.00 0.00 84 1001.2
20260505075042 54 175 0.0 0.0 0.00 0.00 0.00 84 1001.1
20260505074503 55 175 0.0 0.0 0.00 0.00 0.00 84 1001.1
20260505074054 55 175 0.0 0.0 0.00 0.00 0.00 84 1001.0
20260505073542 55 175 0.0 0.0 0.00 0.00 0.00 84 1001.0
20260505073001 55 175 0.0 0.0 0.00 0.00 0.00 84 1001.0
20260505072551 55 175 0.0 0.0 0.00 0.00 0.00 84 1000.9
20260505072040 55 175 0.0 0.0 0.00 0.00 0.00 84 1000.9
20260505071503 55 175 0.0 0.0 0.00 0.00 0.00 84 1000.7
20260505071051 56 175 0.0 0.0 0.00 0.00 0.00 84 1000.7
20260505070538 56 175 0.0 0.0 0.00 0.00 0.00 84 1000.6
20260505070104 56 175 0.0 0.0 0.00 0.00 0.00 85 1000.6
20260505065549 56 175 0.0 0.0 0.00 0.00 0.00 84 1000.5
20260505065038 56 175 0.0 0.0 0.00 0.00 0.00 84 1000.5
20260505064558 56 175 0.0 0.0 0.00 0.00 0.00 83 1000.4
20260505064047 56 175 0.0 0.0 0.00 0.00 0.00 83 1000.3
20260505063535 56 175 0.0 0.0 0.00 0.00 0.00 83 1000.2
20260505063007 57 175 0.0 0.0 0.00 0.00 0.00 83 1000.2
20260505062558 57 175 0.0 0.0 0.00 0.00 0.00 83 1000.1
20260505062047 57 175 0.0 0.0 0.00 0.00 0.00 83 1000.1
20260505061504 57 175 0.0 0.0 0.00 0.00 0.00 82 1000.2
20260505061055 57 175 0.0 0.0 0.00 0.00 0.00 82 1000.1
20260505060543 57 175 0.0 0.0 0.00 0.00 0.00 82 1000.0
20260505060032 57 175 0.0 0.0 0.00 0.00 0.00 82 1000.2
20260505055603 58 175 0.0 0.0 0.00 0.00 0.00 81 1000.1
20260505055051 58 175 0.0 0.0 0.00 0.00 0.00 81 1000.1
20260505054512 58 175 0.0 0.0 0.00 0.00 0.00 81 1000.0
20260505054102 58 175 0.0 0.0 0.00 0.00 0.00 80 1000.0
20260505053548 58 175 0.0 0.0 0.00 0.00 0.00 80 1000.1
20260505053101 58 175 0.0 0.0 0.00 0.00 0.00 80 1000.0
20260505052548 59 175 0.0 0.0 0.00 0.00 0.00 80 999.9
20260505052036 59 175 0.0 0.0 0.00 0.00 0.00 79 1000.0
20260505051608 59 175 0.0 0.0 0.00 0.00 0.00 79 999.9
20260505051048 59 175 0.0 0.0 0.00 0.00 0.00 78 999.8
20260505050537 59 175 0.0 0.0 0.00 0.00 0.00 78 999.8
20260505050105 60 175 0.0 0.0 0.00 0.00 0.00 78 999.7
20260505041508 62 175 0.0 0.0 0.00 0.00 0.00 73 999.0
20260505041056 63 175 0.0 0.0 0.00 0.00 0.00 73 999.0
20260505040544 63 175 0.0 0.0 0.00 0.00 0.00 73 998.9
20260505040003 63 175 0.0 0.0 0.00 0.00 0.00 72 998.7
20260505035552 64 175 0.0 0.0 0.00 0.00 0.00 72 998.7
20260505035041 64 175 0.0 0.0 0.00 0.00 0.00 71 998.6
20260505034512 64 175 0.0 0.0 0.00 0.00 0.00 71 998.5
20260505034102 65 175 0.0 0.0 0.00 0.00 0.00 71 998.4
20260505033551 65 175 0.0 0.0 0.00 0.00 0.00 71 998.4
20260505033013 65 175 0.0 0.0 0.00 0.00 0.00 70 998.3
20260505032601 66 175 0.0 0.0 0.00 0.00 0.00 70 998.3
20260505032052 66 175 0.0 0.0 0.00 0.00 0.00 70 998.2
20260505031601 66 175 0.0 0.0 0.00 0.00 0.00 70 998.1
20260505031047 66 175 0.0 0.0 0.00 0.00 0.00 69 998.0
20260505030538 67 175 0.0 0.0 0.00 0.00 0.00 70 998.0
20260505030057 67 175 0.0 0.0 0.00 0.00 0.00 70 998.0
20260505025545 67 175 0.0 0.0 0.00 0.00 0.00 69 997.9
20260505025034 67 175 0.0 3.0 0.00 0.00 0.00 68 997.9
20260505024506 68 175 0.0 4.0 0.00 0.00 0.00 68 997.9
20260505024053 68 184 0.0 4.0 0.00 0.00 0.00 68 997.8
20260505023543 68 51 0.0 6.0 0.00 0.00 0.00 66 997.8
20260505023011 69 195 1.0 6.0 0.00 0.00 0.00 66 997.8
20260505022554 69 182 0.0 6.0 0.00 0.00 0.00 65 997.7
20260505022042 69 302 1.0 8.0 0.00 0.00 0.00 65 997.8
20260505021515 69 173 3.0 8.0 0.00 0.00 0.00 65 997.7
20260505021103 69 240 0.0 6.0 0.00 0.00 0.00 65 997.7
20260505020550 70 142 1.0 10.0 0.00 0.00 0.00 64 997.8
20260505020008 70 229 4.0 10.0 0.00 0.00 0.00 64 997.7
20260505015559 70 308 3.0 10.0 0.00 0.00 0.00 64 997.7
20260505015048 71 182 2.0 7.0 0.00 0.00 0.00 64 997.7
20260505014514 71 249 0.0 3.0 0.00 0.00 0.00 64 997.7
20260505014102 71 199 0.0 5.0 0.00 0.00 0.00 63 997.7
20260505013548 71 159 1.0 7.0 0.00 0.00 0.00 63 997.7
20260505013006 72 294 3.0 7.0 0.00 0.00 0.00 63 997.7
20260505012557 72 165 2.0 5.0 0.00 0.00 0.00 63 997.8
20260505012046 72 169 2.0 5.0 0.00 0.00 0.00 64 997.7
20260505011505 72 212 1.0 8.0 0.00 0.00 0.00 64 997.8
20260505011055 72 201 2.0 7.0 0.00 0.00 0.00 64 997.8
20260505010542 72 136 3.0 7.0 0.00 0.00 0.00 64 997.9
20260505010004 72 284 2.0 7.0 0.00 0.00 0.00 64 997.9
20260505005554 72 193 0.0 5.0 0.00 0.00 0.00 64 997.9
20260505005042 72 193 1.0 5.0 0.00 0.00 0.00 63 997.8
20260505004503 72 56 1.0 5.0 0.00 0.00 0.00 63 997.8
20260505004052 73 264 0.0 4.0 0.00 0.00 0.00 64 998.0
20260505003543 72 171 1.0 4.0 0.00 0.00 0.00 63 998.0
20260505003002 73 195 1.0 5.0 0.00 0.00 0.00 64 998.1
20260505002553 73 111 0.0 8.0 0.00 0.00 0.00 63 998.1
20260505002042 73 171 3.0 8.0 0.00 0.00 0.00 63 998.1
20260505001502 73 74 1.0 6.0 0.00 0.00 0.00 63 998.1
20260505001054 73 204 2.0 6.0 0.00 0.00 0.00 64 998.1
20260505000543 73 220 2.0 6.0 0.00 0.00 0.00 63 998.2
20260505000109 73 96 1.0 7.0 0.00 0.00 0.00 63 998.3
20260504235552 73 132 1.0 7.0 0.00 0.00 0.00 64 998.2
20260504235039 73 98 1.0 9.0 0.00 0.00 0.00 64 998.3
20260504234500 73 155 4.0 9.0 0.00 0.00 0.00 64 998.3
20260504234051 73 249 3.0 8.0 0.00 0.00 0.00 64 998.4
20260504233539 72 233 0.0 5.0 0.00 0.00 0.00 64 998.5
20260504233108 72 65 1.0 7.0 0.00 0.00 0.00 64 998.6
20260504232551 73 186 1.0 9.0 0.00 0.00 0.00 62 998.6
20260504232038 73 182 2.0 9.0 0.00 0.00 0.00 63 998.6
20260504231601 73 125 2.0 4.0 0.00 0.00 0.00 64 998.5
20260504231048 72 242 1.0 6.0 0.00 0.00 0.00 64 998.6
20260504230539 72 55 0.0 6.0 0.00 0.00 0.00 62 998.6
20260504230105 73 132 2.0 5.0 0.00 0.00 0.00 63 998.7
20260504225547 72 127 2.0 9.0 0.00 0.00 0.00 64 998.7
20260504225035 72 206 3.0 9.0 0.00 0.00 0.00 64 998.8
20260504224558 72 201 2.0 9.0 0.00 0.00 0.00 63 998.8
20260504224046 72 251 3.0 9.0 0.00 0.00 0.00 64 998.9
20260504223533 72 151 2.0 9.0 0.00 0.00 0.00 62 999.0
20260504223005 72 73 1.0 9.0 0.00 0.00 0.00 65 999.0
20260504222554 72 360 1.0 7.0 0.00 0.00 0.00 64 999.0
20260504222041 72 238 2.0 8.0 0.00 0.00 0.00 64 999.1
20260504221502 72 264 4.0 8.0 0.00 0.00 0.00 63 999.2
20260504221051 71 131 2.0 9.0 0.00 0.00 0.00 65 999.1
20260504220540 71 159 4.0 9.0 0.00 0.00 0.00 63 999.2
20260504220009 71 266 3.0 6.0 0.00 0.00 0.00 63 999.2
20260504215559 72 232 2.0 10.0 0.00 0.00 0.00 62 999.3
20260504215047 71 175 5.0 10.0 0.00 0.00 0.00 63 999.3
20260504214517 72 113 2.0 5.0 0.00 0.00 0.00 62 999.3
20260504214058 72 182 2.0 5.0 0.00 0.00 0.00 63 999.4
20260504213547 71 246 1.0 5.0 0.00 0.00 0.00 63 999.4
20260504213008 70 284 0.0 7.0 0.00 0.00 0.00 66 999.5
20260504212559 70 252 2.0 9.0 0.00 0.00 0.00 63 999.5
20260504212047 70 260 4.0 8.0 0.00 0.00 0.00 65 999.7
20260504211514 69 355 1.0 4.0 0.00 0.00 0.00 66 999.8
20260504211058 69 134 1.0 4.0 0.00 0.00 0.00 65 999.9
20260504210548 70 81 1.0 7.0 0.00 0.00 0.00 65 1000.0
20260504210005 70 324 2.0 5.0 0.00 0.00 0.00 64 1000.1
20260504205556 69 167 1.0 8.0 0.00 0.00 0.00 68 1000.1
20260504205042 68 250 2.0 8.0 0.00 0.00 0.00 66 1000.2
20260504204517 68 254 1.0 6.0 0.00 0.00 0.00 67 1000.3
20260504204102 68 84 2.0 6.0 0.00 0.00 0.00 66 1000.3
20260504203549 67 105 2.0 4.0 0.00 0.00 0.00 66 1000.4
20260504203011 67 168 2.0 9.0 0.00 0.00 0.00 69 1000.5
20260504202601 67 129 3.0 9.0 0.00 0.00 0.00 67 1000.4
20260504202049 67 301 2.0 6.0 0.00 0.00 0.00 67 1000.4
20260504201514 67 186 3.0 7.0 0.00 0.00 0.00 70 1000.5
20260504201004 66 98 3.0 7.0 0.00 0.00 0.00 71 1000.6
20260504200553 65 54 1.0 5.0 0.00 0.00 0.00 68 1000.6
20260504200013 65 90 2.0 6.0 0.00 0.00 0.00 69 1000.7
20260504195502 66 166 3.0 6.0 0.00 0.00 0.00 69 1000.7
20260504195051 65 236 2.0 8.0 0.00 0.00 0.00 70 1000.7
20260504194513 64 230 4.0 8.0 0.00 0.00 0.00 71 1000.7
20260504194002 64 92 2.0 4.0 0.00 0.00 0.00 72 1000.7
20260504193543 64 79 2.0 6.0 0.00 0.00 0.00 72 1000.7
20260504193004 64 190 3.0 6.0 0.00 0.00 0.00 70 1000.8
20260504192554 64 152 1.0 4.0 0.00 0.00 0.00 71 1000.8
20260504192042 62 360 1.0 4.0 0.00 0.00 0.00 72 1000.8
20260504191608 63 115 2.0 4.0 0.00 0.00 0.00 71 1000.9
20260504191051 62 97 2.0 4.0 0.00 0.00 0.00 75 1001.1
20260504190539 62 245 1.0 4.0 0.00 0.00 0.00 73 1001.1
20260504190116 62 49 1.0 4.0 0.00 0.00 0.00 75 1001.2
20260504185549 61 64 1.0 4.0 0.00 0.00 0.00 75 1001.2
20260504185037 60 77 2.0 5.0 0.00 0.00 0.00 75 1001.2
20260504184506 60 271 2.0 6.0 0.00 0.00 0.00 76 1001.3
20260504184055 60 158 2.0 7.0 0.00 0.00 0.00 76 1001.3
20260504183542 60 193 2.0 4.0 0.00 0.00 0.00 75 1001.3
20260504183004 60 311 0.0 3.0 0.00 0.00 0.00 76 1001.3
20260504182554 60 77 0.0 3.0 0.00 0.00 0.00 76 1001.3
20260504182042 60 267 1.0 3.0 0.00 0.00 0.00 76 1001.2
20260504181503 60 102 0.0 3.0 0.00 0.00 0.00 77 1001.3
20260504181053 59 100 2.0 3.0 0.00 0.00 0.00 77 1001.2
20260504180541 59 123 2.0 4.0 0.00 0.00 0.00 77 1001.3
20260504175550 59 128 1.0 3.0 0.00 0.00 0.00 78 1001.2
20260504175039 59 157 1.0 6.0 0.00 0.00 0.00 78 1001.3
20260504174601 59 178 1.0 6.0 0.00 0.00 0.00 78 1001.2
20260504174050 58 250 1.0 4.0 0.00 0.00 0.00 78 1001.2
20260504173541 58 115 0.0 7.0 0.00 0.00 0.00 78 1001.1
20260504173101 58 219 1.0 7.0 0.00 0.00 0.00 78 1001.2
20260504172549 58 155 1.0 5.0 0.00 0.00 0.00 77 1001.2
20260504172037 58 190 1.0 6.0 0.00 0.00 0.00 78 1001.1
20260504171509 58 188 3.0 6.0 0.00 0.00 0.00 79 1001.1
20260504171058 58 171 3.0 7.0 0.00 0.00 0.00 78 1001.0
20260504170545 58 331 0.0 7.0 0.00 0.00 0.00 78 1001.0
20260504160106 56 207 1.0 7.0 0.00 0.00 0.00 81 1000.7
20260504151048 56 192 0.0 5.0 0.00 0.00 0.00 80 1000.4
20260504150535 56 331 0.0 4.0 0.00 0.00 0.00 80 1000.5
20260504141058 54 183 0.0 2.0 0.00 0.00 0.00 83 999.8
20260504140546 54 178 0.0 1.0 0.00 0.00 0.00 82 999.7
20260504130540 55 197 0.0 3.0 0.00 0.00 0.00 79 998.7
20260504110545 60 299 0.0 2.0 0.00 0.00 0.00 69 997.0
20260504100537 65 207 0.0 2.0 0.00 0.00 0.00 61 996.2
20260504100105 65 207 0.0 2.0 0.00 0.00 0.00 62 996.2